Location: Newark
(48.8519°N, 2.3472°E)
Time: 11:44:51
(UTC+00:00)

NOAA 15 - Visible Passes

Search period start: 14 October 2019 00:00
Search period end: 24 October 2019 00:00
Orbit: 798 x 812 km, 98.7° (Epoch: 13 October)

Date Brightness Start Highest point End Pass type
(mag) Time Alt. Az. Time Alt. Az. Time Alt. Az.
14 Oct 4.9 17:29:32 10° SE 17:34:34 45° ENE 17:39:38 10° N visible
14 Oct 6.5 19:09:54 10° SSW 19:14:30 30° W 19:19:10 10° NW visible
15 Oct 5.7 18:44:10 10° S 18:49:15 47° W 18:54:25 10° NNW visible
16 Oct 4.8 18:18:48 10° S 18:24:06 75° WSW 18:29:28 10° NNW visible
16 Oct 7.7 20:03:02 10° WSW 20:04:48 11° W 20:06:33 10° WNW visible
17 Oct 4.6 17:53:46 10° SSE 17:59:02 70° ENE 18:04:21 10° N visible
17 Oct 7.2 19:35:37 10° SW 19:39:21 19° W 19:43:05 10° NW visible
18 Oct 4.9 17:29:03 10° SE 17:34:03 45° ENE 17:39:07 10° N visible
18 Oct 6.5 19:09:22 10° SSW 19:14:00 30° W 19:18:40 10° NNW visible
19 Oct 8.1 05:42:08 10° ENE 05:43:59 12° E 05:45:50 10° ESE visible
19 Oct 5.6 18:43:38 10° S 18:48:45 48° W 18:53:54 10° NNW visible
20 Oct 4.8 18:18:17 10° S 18:23:36 76° WSW 18:28:57 10° NNW visible
20 Oct 7.6 20:02:26 10° WSW 20:04:16 12° W 20:06:08 10° WNW visible
21 Oct 4.6 17:53:15 10° SSE 17:58:32 70° ENE 18:03:51 10° N visible
21 Oct 7.2 19:35:04 10° SW 19:38:49 19° W 19:42:36 10° NW visible
22 Oct 4.9 17:28:33 10° SE 17:33:34 44° ENE 17:38:36 10° N visible
22 Oct 6.4 19:08:51 10° SSW 19:13:29 30° W 19:18:10 10° NNW visible
23 Oct 8.1 05:41:43 10° ENE 05:43:28 11° E 05:45:13 10° ESE visible
23 Oct 5.6 18:43:06 10° S 18:48:14 48° W 18:53:25 10° NNW visible
